This demonstration page uses our WeatherBlox Daily Observations layout. Learn more.

Left ArrowRight Arrow

Hourly Observations for January 5, 2019

Temp ( °F °C ) Dew Point ( °F °C ) Humidity (%) Winds ( mph kmh ) Pressure ( in mb ) Visibility ( mi km ) Precip ( " mm )
12:17 am 00:17 Mostly Cloudy 45 7.2 40 4.4 83 83 VRB 5 7 29.85 1011 10 16 0.00 0.00
1:06 am 01:06 Mostly Cloudy 44 6.7 38 3.3 79 79 WSW 8 13 29.85 1011 10 16 0.00 0.00
4:53 am 04:53 Cloudy 44 6.7 39 3.9 83 83 W 15 24 29.90 1013 10 16 0.00 0.00
5:53 am 05:53 Cloudy 44 6.7 39 3.9 83 83 WNW 7 11 29.91 1013 10 16 0.00 0.00
6:53 am 06:53 Cloudy 44 6.7 40 4.4 85 85 W 8 13 29.94 1014 10 16 0.00 0.00
7:53 am 07:53 Mostly Cloudy 44 6.7 39 3.9 83 83 WNW 8 13 29.98 1015 10 16 0.00 0.00
8:53 am 08:53 Mostly Cloudy 44 6.7 38 3.3 79 79 W 9 15 30.01 1016 10 16 0.00 0.00
9:53 am 09:53 Mostly Sunny 46 7.8 38 3.3 73 73 W 14 22 30.05 1018 10 16 0.00 0.00
10:53 am 10:53 Sunny 49 9.4 37 2.8 64 64 WNW 7 11 30.05 1018 10 16 0.00 0.00
11:53 am 11:53 Sunny 52 11.1 37 2.8 57 57 WNW 10 17 30.04 1017 10 16 0.00 0.00
12:53 pm 12:53 Sunny 54 12.2 36 2.2 51 51 W 13 20 30.02 1017 10 16 0.00 0.00
1:53 pm 13:53 Sunny 56 13.3 36 2.2 47 47 WNW 16 26 30.01 1016 10 16 0.00 0.00
2:53 pm 14:53 Sunny 58 14.4 36 2.2 44 44 WNW 14 22 30.02 1017 10 16 0.00 0.00
3:53 pm 15:53 Sunny 58 14.4 37 2.8 46 46 WNW 14 22 30.04 1017 10 16 0.00 0.00
4:53 pm 16:53 Sunny 58 14.4 37 2.8 46 46 NW 9 15 30.05 1018 10 16 0.00 0.00
5:53 pm 17:53 Clear 55 12.8 37 2.8 51 51 WNW 7 11 30.07 1018 10 16 0.00 0.00
6:53 pm 18:53 Clear 53 11.7 38 3.3 57 57 Calm 30.09 1019 10 16 0.00 0.00
7:53 pm 19:53 Clear 51 10.6 38 3.3 61 61 WSW 3 6 30.11 1020 10 16 0.00 0.00
8:53 pm 20:53 Clear 51 10.6 37 2.8 59 59 SSW 3 6 30.11 1020 10 16 0.00 0.00
9:53 pm 21:53 Clear 50 10 37 2.8 61 61 Calm 30.12 1020 10 16 0.00 0.00
10:53 pm 22:53 Clear 49 9.4 38 3.3 66 66 NNW 6 9 30.12 1020 10 16 0.00 0.00

Powered by AerisWeather